Flag for Norway Weather past 2 weeks in Flekkefjord, Norway

Now
43 °F

Quite cool.


Feels Like: 38 °F
Forecast: 36 / 45 °F
Wind: 8 mph from Southeast

Location: Lista Fyr

Current Time: Apr 27, 2015 at 11:01:13 AM

Latest Report: Apr 27, 2015 at 10:00 AM


Visibility: N/A

Pressure: 29.61 "Hg

Humidity: 75%

Dew point: 35 °F

Location of FlekkefjordLocation

Historic Weather in Flekkefjord — Graph

°F

Flekkefjord temperature yesterday

Maximum temperature yesterday: 46 °F (at 3:00 PM)
Minimum temperature yesterday: 42 °F (at 6:00 AM)
Average temperature yesterday: 44 °F

Past Weeks' High & Low Weather Summary

 TemperatureHumidityPressure
High57 °F (Apr 20, 9:00 AM)99% (Apr 21, 1:00 AM)30.44 "Hg (Apr 21, 1:00 AM)
Low33 °F (Apr 27, 5:00 AM)42% (Apr 17, 11:00 AM)29.41 "Hg (Apr 25, 12:00 PM)
Average44 °F80%29.99 "Hg
* Reported Apr 12 9:00 AM — Apr 27 9:00 AM, Flekkefjord, Weather by CustomWeather, © 2015

Note: Actual official high and low records may vary slightly from our data, if they occured in-between our weather recording intervals... More about our weather records

Advertising

Flekkefjord weather history for previous 24 hours

 ConditionsComfort  
Time TempWeatherWind HumidityBarometerVisibility
9:00 AM
Mon, Apr 27
44 °FQuite cool.5 mph75%29.62 "HgN/A
8:00 AM40 °FPassing clouds.3 mph88%29.63 "Hg12 mi
7:00 AM34 °FChilly.3 mph94%29.63 "HgN/A
6:00 AM33 °FChilly.3 mph93%29.64 "HgN/A
5:00 AM33 °FChilly.2 mph93%29.65 "HgN/A
4:00 AM35 °FChilly.1 mph87%29.66 "HgN/A
3:00 AM39 °FChilly.3 mph80%29.67 "HgN/A
2:00 AM42 °FQuite cool.5 mph75%29.67 "HgN/A
1:00 AM42 °FQuite cool.6 mph76%29.69 "HgN/A
12:00 AM42 °FQuite cool.6 mph75%29.68 "HgN/A
11:00 PM
Sun, Apr 26
42 °FQuite cool.7 mph75%29.68 "HgN/A
10:00 PM43 °FQuite cool.7 mph73%29.68 "HgN/A
9:00 PM43 °FQuite cool.7 mph73%29.68 "HgN/A
8:00 PM44 °FPassing clouds.7 mph70%29.68 "Hg12 mi
7:00 PM45 °FCool.8 mph71%29.68 "HgN/A
6:00 PM45 °FCool.7 mph73%29.68 "HgN/A
5:00 PM46 °FCool.7 mph71%29.69 "HgN/A
4:00 PM46 °FCool.7 mph70%29.69 "HgN/A
3:00 PM46 °FCool.8 mph70%29.69 "HgN/A
2:00 PM46 °FPassing clouds.7 mph71%29.68 "Hg16 mi
1:00 PM46 °FCool.7 mph71%29.67 "HgN/A
12:00 PM45 °FCool.7 mph74%29.67 "HgN/A
11:00 AM42 °FPassing clouds.10 mph78%29.65 "Hg16 mi
Weather by CustomWeather, © 2015

See weather overviewHow to use our weather pages